Weather History for Seward, AK

Change the Weather History Date:

Monday, March 12, 2012

  Actual Average Record
Temperature  
Mean Temperature 20 °F -  
Max Temperature 27 °F 37 °F 48 °F (1965)
Min Temperature 14 °F 26 °F 3 °F (1953)
Degree Days  
Heating Degree Days 44    
Moisture  
Dew Point 5 °F    
Average Humidity 50    
Maximum Humidity 60    
Minimum Humidity 44    
Precipitation  
Precipitation 0.00 in - - ()
Sea Level Pressure  
Sea Level Pressure 29.30 in    
Wind  
Wind Speed 20 mph (NNE)    
Max Wind Speed 31 mph    
Max Gust Speed 44 mph    
Visibility 10 miles    
Events      
Averages and records for this station are not official NWS values.
T = Trace of Precipitation, MM = Missing Value Source: NWS Daily Summary

Daily Weather History Graph

Daily Weather History Graph

Search for Another Location

Airport:

Trip Planner

Search our weather history database for the weather conditions in past years. The results will help you decide how hot, cold, wet, or windy it might be!

Date:

Astronomy

Mar. 12, 2012 Rise Set
Actual Time 8:21 AM AKDT 7:54 PM AKDT
Civil Twilight 7:39 AM AKDT 8:35 PM AKDT
Nautical Twilight 6:50 AM AKDT 9:25 PM AKDT
Astronomical Twilight 5:59 AM AKDT 10:17 PM AKDT
Moon 2:00 AM AKDT (3/12) 9:14 AM AKDT (3/12)
Length of Visible Light 12h 56m
Length of Day
11h 33m
Waning Gibbous, 74% of the Moon is Illuminated
Mar 12
Waning Gibbous
Mar 14
Last Quarter
Mar 22
New
Mar 30
First Quarter
Apr 6
Full

Hourly Weather History & Observations

Time (AKDT) Temp. Windchill Dew Point Humidity Pressure Visibility Wind Dir Wind Speed Gust Speed Precip Events Conditions
12:53 AM 19.0 °F 1.0 °F 1.9 °F 47% 29.42 in 10.0 mi North 26.5 mph 36.8 mph N/A   Clear
1:53 AM 19.0 °F -0.3 °F 3.0 °F 50% 29.43 in 10.0 mi North 31.1 mph 42.6 mph N/A   Clear
2:53 AM 18.0 °F -1.4 °F 1.9 °F 50% 29.43 in 10.0 mi North 29.9 mph 36.8 mph N/A   Clear
3:53 AM 18.0 °F -1.7 °F 1.9 °F 50% 29.44 in 10.0 mi North 31.1 mph 43.7 mph N/A   Clear
4:53 AM 17.1 °F -2.7 °F 1.9 °F 52% 29.44 in 10.0 mi North 29.9 mph 38.0 mph N/A   Clear
5:53 AM 18.0 °F -1.1 °F 1.0 °F 48% 29.44 in 10.0 mi North 28.8 mph 40.3 mph N/A   Clear
6:53 AM 16.0 °F -0.4 °F 1.0 °F 52% 29.42 in 10.0 mi NNE 18.4 mph 28.8 mph N/A   Clear
7:53 AM 15.1 °F -2.5 °F 1.0 °F 54% 29.41 in 10.0 mi NNE 20.7 mph 28.8 mph N/A   Clear
8:53 AM 14.0 °F -3.9 °F 1.0 °F 56% 29.40 in 10.0 mi NNE 20.7 mph 29.9 mph N/A   Clear
9:53 AM 15.1 °F -0.6 °F 1.0 °F 54% 29.39 in 10.0 mi NNE 16.1 mph 25.3 mph N/A   Clear
10:53 AM 16.0 °F -0.4 °F 1.9 °F 54% 29.38 in 10.0 mi NE 18.4 mph 24.2 mph N/A   Clear
11:53 AM 19.0 °F 4.5 °F 3.0 °F 50% 29.36 in 10.0 mi NE 16.1 mph 23.0 mph N/A   Clear
12:53 PM 21.9 °F 10.4 °F 3.9 °F 46% 29.34 in 10.0 mi NNE 11.5 mph 19.6 mph N/A   Partly Cloudy
1:53 PM 23.0 °F 12.4 °F 5.0 °F 46% 29.32 in 10.0 mi North 10.4 mph 21.9 mph N/A   Overcast
2:53 PM 24.1 °F 13.7 °F 6.1 °F 46% 29.30 in 10.0 mi North 10.4 mph - N/A   Overcast
3:53 PM 26.1 °F 17.6 °F 7.0 °F 44% 29.27 in 10.0 mi North 8.1 mph - N/A   Overcast
4:20 PM 26.6 °F 17.5 °F 8.6 °F 47% 29.25 in 10.0 mi NNE 9.2 mph - N/A   Overcast
4:53 PM 27.0 °F 16.7 °F 8.1 °F 45% 29.24 in 10.0 mi NE 11.5 mph - N/A   Overcast
5:46 PM 26.6 °F 17.5 °F 8.6 °F 47% 29.21 in 10.0 mi NNE 9.2 mph - N/A   Overcast
5:53 PM 27.0 °F 18.7 °F 8.1 °F 45% 29.21 in 10.0 mi North 8.1 mph - N/A   Overcast
6:33 PM 26.6 °F 17.5 °F 8.6 °F 47% 29.19 in 10.0 mi NNE 9.2 mph - N/A   Overcast
6:53 PM 26.1 °F 17.6 °F 8.1 °F 47% 29.19 in 10.0 mi NNE 8.1 mph - N/A   Overcast
7:53 PM 24.1 °F 16.0 °F 8.1 °F 51% 29.17 in 10.0 mi NE 6.9 mph - N/A   Overcast
8:53 PM 23.0 °F 13.9 °F 7.0 °F 50% 29.15 in 10.0 mi NNE 8.1 mph - N/A   Mostly Cloudy
9:53 PM 19.9 °F 8.6 °F 7.0 °F 57% 29.11 in 10.0 mi NNE 10.4 mph - N/A   Clear
10:53 PM 19.9 °F 10.1 °F 8.1 °F 60% 29.10 in 10.0 mi North 8.1 mph - N/A   Overcast
11:53 PM 19.0 °F 8.2 °F 7.0 °F 59% 29.07 in 10.0 mi North 9.2 mph - N/A   Overcast